KLM47M EHAM-EGLC

Flight info

Callsign KLM47M
Flight time 0h 45m
Altitude 20000
Route IDRID L980 XAMAN
Aircraft E190/M-SDE3GILORVW/S

Departure

Time 2026-05-07 08:15
Airport Amsterdam Airport Schiphol (EHAM)

Arrival

Time 2026-05-07 09:01
Airport London City Airport (EGLC)
Time Latitude Longitude Altitude Speed Heading
2026-05-07 08:04 52.30078 4.75433 -3 ft 0 kts 73°
2026-05-07 08:08 52.30078 4.75435 -3 ft 0 kts 86°
2026-05-07 08:08 52.30075 4.75439 -2 ft 0 kts 115°
2026-05-07 08:08 52.30072 4.75440 -4 ft 0 kts 144°
2026-05-07 08:08 52.30052 4.75456 -4 ft 6 kts 156°
2026-05-07 08:09 52.30010 4.75490 -4 ft 7 kts 151°
2026-05-07 08:09 52.29963 4.75538 -4 ft 9 kts 147°
2026-05-07 08:09 52.29929 4.75538 -4 ft 5 kts 195°
2026-05-07 08:09 52.29910 4.75511 -4 ft 4 kts 225°
2026-05-07 08:10 52.29891 4.75467 -4 ft 7 kts 234°
2026-05-07 08:10 52.29861 4.75387 -4 ft 10 kts 239°
2026-05-07 08:10 52.29833 4.75275 -4 ft 9 kts 268°
2026-05-07 08:10 52.29852 4.75205 -4 ft 6 kts 302°
2026-05-07 08:11 52.29878 4.75138 -4 ft 9 kts 302°
2026-05-07 08:11 52.29918 4.75055 -4 ft 10 kts 311°
2026-05-07 08:11 52.29975 4.74949 -4 ft 14 kts 311°
2026-05-07 08:11 52.30051 4.74811 -4 ft 18 kts 310°
2026-05-07 08:12 52.30134 4.74654 -4 ft 19 kts 311°
2026-05-07 08:12 52.30225 4.74484 -4 ft 20 kts 314°
2026-05-07 08:12 52.30317 4.74308 -4 ft 21 kts 311°
2026-05-07 08:12 52.30404 4.74151 -4 ft 13 kts 313°
2026-05-07 08:13 52.30420 4.74025 -4 ft 11 kts 248°
2026-05-07 08:13 52.30408 4.73908 -5 ft 12 kts 269°
2026-05-07 08:13 52.30423 4.73788 -6 ft 7 kts 320°
2026-05-07 08:13 52.30447 4.73773 -6 ft 3 kts 351°
2026-05-07 08:14 52.30472 4.73767 -6 ft 5 kts 351°
2026-05-07 08:14 52.30512 4.73757 -6 ft 7 kts 351°
2026-05-07 08:14 52.30577 4.73758 -7 ft 20 kts
2026-05-07 08:14 52.30948 4.73802 -3 ft 90 kts
2026-05-07 08:15 52.31809 4.73890 1 ft 155 kts
2026-05-07 08:15 52.32999 4.73981 489 ft 183 kts
2026-05-07 08:15 52.34176 4.74036 1180 ft 150 kts 356°
2026-05-07 08:15 52.35269 4.73528 1244 ft 184 kts 338°
2026-05-07 08:16 52.36451 4.72733 1593 ft 187 kts 342°
2026-05-07 08:16 52.37697 4.72034 2004 ft 189 kts 343°
2026-05-07 08:16 52.38941 4.71385 2551 ft 188 kts 345°
2026-05-07 08:16 52.40199 4.70699 3085 ft 197 kts 334°
2026-05-07 08:17 52.40921 4.69715 3472 ft 207 kts 306°
2026-05-07 08:17 52.41252 4.66592 4233 ft 226 kts 259°
2026-05-07 08:17 52.40842 4.64045 4835 ft 237 kts 255°
2026-05-07 08:17 52.40334 4.61412 5417 ft 247 kts 253°
2026-05-07 08:18 52.39782 4.58705 6001 ft 255 kts 252°
2026-05-07 08:18 52.38988 4.56056 6572 ft 263 kts 238°
2026-05-07 08:18 52.37966 4.53529 7108 ft 269 kts 236°
2026-05-07 08:18 52.36879 4.50984 7667 ft 275 kts 236°
2026-05-07 08:19 52.35849 4.48364 8221 ft 280 kts 239°
2026-05-07 08:19 52.34849 4.45618 8767 ft 281 kts 240°
2026-05-07 08:19 52.33850 4.42852 9330 ft 281 kts 240°
2026-05-07 08:19 52.32854 4.40088 9892 ft 282 kts 240°
2026-05-07 08:20 52.31848 4.37287 10417 ft 289 kts 240°
2026-05-07 08:20 52.30812 4.34425 10942 ft 297 kts 240°
2026-05-07 08:20 52.29747 4.31484 11479 ft 304 kts 240°
2026-05-07 08:20 52.28660 4.28484 12019 ft 310 kts 240°
2026-05-07 08:21 52.27570 4.25474 12574 ft 315 kts 240°
2026-05-07 08:21 52.26441 4.22362 13131 ft 321 kts 240°
2026-05-07 08:21 52.25293 4.19208 13704 ft 326 kts 240°
2026-05-07 08:21 52.24131 4.16024 14223 ft 325 kts 240°
2026-05-07 08:22 52.22968 4.12832 14733 ft 325 kts 240°
2026-05-07 08:22 52.21809 4.09651 15241 ft 328 kts 240°
2026-05-07 08:22 52.20633 4.06432 15769 ft 330 kts 240°
2026-05-07 08:22 52.19446 4.03196 16302 ft 334 kts 240°
2026-05-07 08:23 52.18264 3.99970 16837 ft 337 kts 240°
2026-05-07 08:23 52.17059 3.96691 17388 ft 339 kts 240°
2026-05-07 08:23 52.15846 3.93379 17970 ft 341 kts 239°
2026-05-07 08:23 52.14619 3.90047 18511 ft 345 kts 239°
2026-05-07 08:24 52.13376 3.86681 19013 ft 348 kts 239°
2026-05-07 08:24 52.12123 3.83281 19521 ft 351 kts 240°
2026-05-07 08:24 52.10850 3.79832 19911 ft 355 kts 240°
2026-05-07 08:24 52.09572 3.76376 19999 ft 357 kts 239°
2026-05-07 08:25 52.08297 3.72942 20046 ft 355 kts 240°
2026-05-07 08:25 52.07044 3.69562 20065 ft 352 kts 239°
2026-05-07 08:25 52.05772 3.66128 20077 ft 353 kts 240°
2026-05-07 08:25 52.04496 3.62702 20082 ft 355 kts 239°
2026-05-07 08:26 52.01941 3.55848 20073 ft 352 kts 239°
2026-05-07 08:26 52.00675 3.52427 20077 ft 353 kts 242°
2026-05-07 08:26 51.99639 3.48805 20082 ft 355 kts 249°
2026-05-07 08:27 51.98909 3.45002 20076 ft 353 kts 255°
2026-05-07 08:27 51.98260 3.41166 20081 ft 353 kts 255°
2026-05-07 08:27 51.97642 3.37368 20077 ft 353 kts 256°
2026-05-07 08:27 51.97022 3.33520 20074 ft 353 kts 256°
2026-05-07 08:28 51.96397 3.29659 20076 ft 352 kts 256°
2026-05-07 08:28 51.95774 3.25814 20079 ft 353 kts 256°
2026-05-07 08:28 51.95150 3.21965 20078 ft 351 kts 256°
2026-05-07 08:28 51.94526 3.18127 20077 ft 352 kts 256°
2026-05-07 08:29 51.93900 3.14294 20078 ft 354 kts 255°
2026-05-07 08:29 51.93268 3.10437 20073 ft 352 kts 255°
2026-05-07 08:29 51.92639 3.06599 20073 ft 350 kts 256°
2026-05-07 08:29 51.92012 3.02784 20074 ft 351 kts 255°
2026-05-07 08:30 51.91388 2.98993 20075 ft 353 kts 255°
2026-05-07 08:30 51.90751 2.95140 20079 ft 353 kts 255°
2026-05-07 08:30 51.90116 2.91303 20075 ft 353 kts 255°
2026-05-07 08:30 51.89483 2.87482 20076 ft 351 kts 255°
2026-05-07 08:31 51.88849 2.83659 20078 ft 352 kts 255°
2026-05-07 08:31 51.88209 2.79828 20076 ft 354 kts 255°
2026-05-07 08:31 51.87566 2.75980 20073 ft 351 kts 255°
2026-05-07 08:31 51.86928 2.72162 20068 ft 350 kts 255°
2026-05-07 08:32 51.86290 2.68353 20074 ft 350 kts 255°
2026-05-07 08:32 51.85866 2.65827 20076 ft 352 kts 255°
2026-05-07 08:32 51.85002 2.60699 20070 ft 355 kts 255°
2026-05-07 08:32 51.84357 2.56882 20070 ft 353 kts 255°
2026-05-07 08:33 51.83928 2.54348 20073 ft 350 kts 255°
2026-05-07 08:33 51.83286 2.50552 20072 ft 351 kts 255°
2026-05-07 08:33 51.82639 2.46738 20071 ft 352 kts 255°
2026-05-07 08:33 51.81981 2.42883 20073 ft 353 kts 255°
2026-05-07 08:34 51.81119 2.37826 20072 ft 352 kts 255°
2026-05-07 08:34 51.80679 2.35258 20071 ft 351 kts 255°
2026-05-07 08:34 51.80034 2.31484 20077 ft 353 kts 255°
2026-05-07 08:34 51.79397 2.27653 20074 ft 355 kts 256°
2026-05-07 08:35 51.78853 2.23767 20074 ft 352 kts 258°
2026-05-07 08:35 51.78384 2.19888 20069 ft 352 kts 262°
2026-05-07 08:35 51.78114 2.15970 20077 ft 352 kts 264°
2026-05-07 08:35 51.77862 2.12040 20078 ft 353 kts 264°
2026-05-07 08:36 51.77630 2.08098 20070 ft 353 kts 264°
2026-05-07 08:36 51.77395 2.04130 20074 ft 352 kts 264°
2026-05-07 08:36 51.77164 2.00242 20078 ft 353 kts 264°
2026-05-07 08:36 51.76929 1.96320 20076 ft 349 kts 264°
2026-05-07 08:37 51.76693 1.92391 20073 ft 354 kts 264°
2026-05-07 08:37 51.76454 1.88457 20076 ft 353 kts 264°
2026-05-07 08:37 51.76212 1.84495 20078 ft 352 kts 264°
2026-05-07 08:37 51.75970 1.80564 20074 ft 352 kts 264°
2026-05-07 08:38 51.75726 1.76610 20076 ft 353 kts 264°
2026-05-07 08:38 51.75485 1.72745 20079 ft 351 kts 264°
2026-05-07 08:38 51.75240 1.68806 20079 ft 351 kts 264°
2026-05-07 08:38 51.74779 1.64920 20070 ft 355 kts 249°
2026-05-07 08:39 51.73456 1.61595 20078 ft 354 kts 225°
2026-05-07 08:39 51.71410 1.59404 20092 ft 356 kts 202°
2026-05-07 08:39 51.68978 1.58698 20096 ft 360 kts 179°
2026-05-07 08:39 51.66537 1.59612 20094 ft 362 kts 155°
2026-05-07 08:40 51.64399 1.61751 20102 ft 363 kts 149°
2026-05-07 08:40 51.62089 1.63206 20097 ft 361 kts 169°
2026-05-07 08:40 51.59650 1.64222 20091 ft 361 kts 164°
2026-05-07 08:40 51.57176 1.64845 19811 ft 361 kts 184°
2026-05-07 08:41 51.54753 1.63943 19365 ft 359 kts 206°
2026-05-07 08:41 51.52581 1.61968 18957 ft 361 kts 213°
2026-05-07 08:41 51.50470 1.59762 18534 ft 360 kts 214°
2026-05-07 08:41 51.48399 1.57506 18089 ft 358 kts 215°
2026-05-07 08:42 51.46352 1.55246 17599 ft 355 kts 216°
2026-05-07 08:42 51.44330 1.53010 17118 ft 351 kts 215°
2026-05-07 08:42 51.42322 1.50784 16645 ft 350 kts 215°
2026-05-07 08:42 51.40322 1.48559 16179 ft 349 kts 216°
2026-05-07 08:43 51.38381 1.46253 15707 ft 345 kts 225°
2026-05-07 08:43 51.36977 1.43184 15111 ft 341 kts 241°
2026-05-07 08:43 51.35919 1.39839 14532 ft 340 kts 245°
2026-05-07 08:43 51.34925 1.36420 13957 ft 338 kts 246°
2026-05-07 08:44 51.34157 1.32922 13311 ft 333 kts 262°
2026-05-07 08:44 51.34292 1.29266 12668 ft 329 kts 287°
2026-05-07 08:44 51.35379 1.26095 12047 ft 325 kts 312°
2026-05-07 08:44 51.37205 1.24013 11446 ft 323 kts 338°
2026-05-07 08:45 51.39392 1.23437 10932 ft 318 kts
2026-05-07 08:45 51.41537 1.23866 10504 ft 310 kts
2026-05-07 08:45 51.43586 1.23187 10238 ft 297 kts 334°
2026-05-07 08:45 51.45151 1.21151 9982 ft 289 kts 306°
2026-05-07 08:46 51.45895 1.18233 9713 ft 283 kts 277°
2026-05-07 08:46 51.45823 1.15105 9449 ft 282 kts 264°
2026-05-07 08:46 51.45544 1.11984 9199 ft 283 kts 261°
2026-05-07 08:46 51.45227 1.08924 8949 ft 281 kts 260°
2026-05-07 08:47 51.44893 1.05842 8691 ft 280 kts 260°
2026-05-07 08:47 51.44558 1.02767 8431 ft 279 kts 260°
2026-05-07 08:47 51.44228 0.99713 8173 ft 277 kts 260°
2026-05-07 08:47 51.43902 0.96663 7914 ft 276 kts 259°
2026-05-07 08:48 51.43592 0.93641 7663 ft 274 kts 259°
2026-05-07 08:48 51.43292 0.90628 7455 ft 274 kts 260°
2026-05-07 08:48 51.42995 0.87625 7416 ft 272 kts 260°
2026-05-07 08:48 51.42701 0.84614 7420 ft 274 kts 260°
2026-05-07 08:49 51.42403 0.81593 7423 ft 274 kts 260°
2026-05-07 08:49 51.42117 0.78582 7426 ft 274 kts 262°
2026-05-07 08:49 51.42006 0.75527 7424 ft 274 kts 268°
2026-05-07 08:49 51.42024 0.72469 7425 ft 275 kts 270°
2026-05-07 08:50 51.42082 0.69405 7427 ft 275 kts 270°
2026-05-07 08:50 51.42149 0.66375 7425 ft 275 kts 271°
2026-05-07 08:50 51.42218 0.63308 7426 ft 275 kts 270°
2026-05-07 08:50 51.42291 0.60245 7428 ft 275 kts 271°
2026-05-07 08:51 51.42361 0.57172 7430 ft 275 kts 271°
2026-05-07 08:51 51.42426 0.54119 7436 ft 275 kts 271°
2026-05-07 08:51 51.42496 0.51034 7440 ft 275 kts 271°
2026-05-07 08:51 51.42570 0.47971 7443 ft 275 kts 271°
2026-05-07 08:52 51.42645 0.44923 7449 ft 273 kts 271°
2026-05-07 08:52 51.42723 0.41872 7462 ft 274 kts 271°
2026-05-07 08:52 51.42799 0.38823 7464 ft 274 kts 271°
2026-05-07 08:52 51.42876 0.35815 7463 ft 274 kts 271°
2026-05-07 08:53 51.42952 0.32769 7462 ft 274 kts 271°
2026-05-07 08:53 51.43028 0.29715 7462 ft 274 kts 271°
2026-05-07 08:53 51.43104 0.26662 7465 ft 274 kts 271°
2026-05-07 08:53 51.43178 0.23610 7411 ft 275 kts 271°
2026-05-07 08:54 51.43254 0.20549 7262 ft 273 kts 271°
2026-05-07 08:54 51.43331 0.17509 7107 ft 272 kts 271°
2026-05-07 08:54 51.43408 0.14486 6955 ft 271 kts 271°
2026-05-07 08:54 51.43488 0.11472 6799 ft 271 kts 271°
2026-05-07 08:55 51.43571 0.08460 6621 ft 270 kts 271°
2026-05-07 08:55 51.43656 0.05501 6429 ft 270 kts 271°
2026-05-07 08:55 51.43746 0.02470 6190 ft 268 kts 271°
2026-05-07 08:55 51.43834 -0.00512 5957 ft 267 kts 271°
2026-05-07 08:56 51.43902 -0.03422 5731 ft 261 kts 271°
2026-05-07 08:56 51.43951 -0.06324 5447 ft 259 kts 271°
2026-05-07 08:56 51.43999 -0.09202 5160 ft 259 kts 272°
2026-05-07 08:56 51.44428 -0.12002 4730 ft 260 kts 298°
2026-05-07 08:57 51.45682 -0.14040 4292 ft 258 kts 330°
2026-05-07 08:57 51.47352 -0.14703 3749 ft 245 kts
2026-05-07 08:57 51.48925 -0.13860 3202 ft 237 kts 31°
2026-05-07 08:57 51.50276 -0.12474 2645 ft 231 kts 43°
2026-05-07 08:58 51.51104 -0.10353 2222 ft 212 kts 79°
2026-05-07 08:58 51.51058 -0.08248 2158 ft 179 kts 102°
2026-05-07 08:58 51.50881 -0.06396 2126 ft 155 kts 94°
2026-05-07 08:58 51.50854 -0.04802 2097 ft 131 kts 95°
2026-05-07 08:59 51.50797 -0.03356 1833 ft 129 kts 96°
2026-05-07 08:59 51.50753 -0.01941 1498 ft 125 kts 94°
2026-05-07 08:59 51.50713 -0.00544 1189 ft 126 kts 94°
2026-05-07 08:59 51.50668 0.00839 886 ft 123 kts 95°
2026-05-07 09:00 51.50629 0.02219 544 ft 125 kts 92°
2026-05-07 09:00 51.50586 0.03599 213 ft 122 kts 94°
2026-05-07 09:00 51.50546 0.04918 31 ft 110 kts 92°
2026-05-07 09:00 51.50510 0.05937 20 ft 71 kts 92°
2026-05-07 09:01 51.50500 0.06273 25 ft 13 kts 93°
2026-05-07 09:01 51.50485 0.06327 26 ft 1 kts 145°
2026-05-07 09:01 51.50451 0.06347 27 ft 12 kts 153°
2026-05-07 09:01 51.50412 0.06515 26 ft 20 kts 95°
2026-05-07 09:02 51.50477 0.06577 27 ft 12 kts 321°
2026-05-07 09:02 51.50495 0.06421 27 ft 20 kts 275°
2026-05-07 09:02 51.50507 0.06123 22 ft 34 kts 274°
2026-05-07 09:02 51.50517 0.05733 20 ft 35 kts 274°
2026-05-07 09:03 51.50525 0.05398 24 ft 23 kts 255°
2026-05-07 09:03 51.50451 0.05219 27 ft 7 kts 259°
2026-05-07 09:03 51.50440 0.05153 28 ft 7 kts 221°
2026-05-07 09:03 51.50415 0.05148 25 ft 2 kts 179°
2026-05-07 09:04 51.50407 0.05148 25 ft 0 kts 179°